Total_Precipitation_Accumulation
2.03 1.57 1.02 0.60 0.49 0.45 0.41 0.52 0.63 0.63 0.62 0.66 0.70 0.59 0.56 0.50 0.48 0.51 0.49 0.52 0.64 0.80 0.97 1.10 1.28 1.49 1.65 1.64 1.64 1.75 1.86 1.92 1.96 2.02 1.95 1.85 1.78 1.69 1.61 1.49 1.38 1.23 1.16 1.19
1.71 1.16 0.54 0.39 0.42 0.41 0.40 0.46 0.54 0.56 0.55 0.65 0.70 0.64 0.57 0.56 0.53 0.51 0.48 0.47 0.57 0.71 0.84 0.97 1.16 1.34 1.51 1.60 1.64 1.77 1.86 1.88 1.84 1.89 1.99 1.94 1.99 1.95 1.91 1.85 1.70 1.54 1.41 1.38
1.33 0.78 0.44 0.46 0.51 0.45 0.36 0.38 0.45 0.50 0.55 0.69 0.78 0.79 0.60 0.55 0.54 0.46 0.44 0.47 0.56 0.70 0.79 0.88 1.03 1.15 1.27 1.46 1.69 1.79 1.84 1.85 1.83 2.03 2.39 2.33 2.23 2.14 2.07 2.00 1.92 1.78 1.67 1.61
1.17 0.67 0.50 0.50 0.45 0.40 0.38 0.29 0.37 0.45 0.65 0.80 0.81 1.02 0.67 0.60 0.59 0.49 0.44 0.47 0.59 0.65 0.69 0.76 0.97 1.06 1.10 1.26 1.54 1.82 1.91 1.96 2.03 2.19 2.41 2.45 2.20 2.02 1.95 1.97 1.98 1.95 1.77 1.70
1.11 0.76 0.61 0.56 0.42 0.38 0.39 0.29 0.37 0.45 0.58 0.72 0.60 0.77 0.72 0.56 0.60 0.61 0.57 0.57 0.64 0.67 0.69 0.74 0.93 1.04 1.04 1.12 1.33 1.59 1.84 1.92 2.08 2.19 2.28 2.44 2.24 1.95 1.94 1.97 1.94 1.94 1.87 1.70
0.77 0.65 0.68 0.57 0.39 0.38 0.40 0.39 0.45 0.53 0.65 0.73 0.51 0.60 0.68 0.60 0.62 0.64 0.66 0.71 0.76 0.74 0.72 0.77 0.89 0.93 0.93 0.97 1.11 1.28 1.49 1.61 1.71 1.86 2.03 2.20 2.23 2.11 1.96 1.87 1.82 1.79 1.79 1.75
0.91 0.73 0.61 0.52 0.51 0.45 0.45 0.62 0.83 0.93 0.83 0.62 0.40 0.45 0.62 0.56 0.55 0.60 0.68 0.73 0.75 0.74 0.69 0.74 0.80 0.78 0.77 0.81 0.93 1.05 1.17 1.30 1.40 1.51 1.69 1.87 2.00 2.06 2.04 1.94 1.83 1.72 1.63 1.60
0.90 0.99 0.58 0.47 0.48 0.47 0.40 0.49 0.67 0.69 0.48 0.38 0.27 0.39 0.56 0.55 0.57 0.57 0.65 0.65 0.64 0.64 0.66 0.75 0.83 0.79 0.76 0.78 0.79 0.82 0.92 1.09 1.20 1.26 1.39 1.52 1.60 1.65 1.68 1.74 1.73 1.66 1.57 1.52
0.50 0.62 0.39 0.30 0.26 0.29 0.37 0.33 0.29 0.49 0.35 0.27 0.28 0.35 0.50 0.53 0.53 0.55 0.59 0.57 0.54 0.54 0.62 0.71 0.75 0.71 0.69 0.70 0.70 0.70 0.77 0.89 0.95 0.98 1.07 1.11 1.17 1.22 1.29 1.35 1.38 1.38 1.41 1.45
0.25 0.39 0.32 0.24 0.24 0.22 0.22 0.19 0.27 0.52 0.48 0.33 0.24 0.27 0.49 0.52 0.52 0.51 0.49 0.48 0.47 0.51 0.56 0.57 0.56 0.53 0.56 0.61 0.65 0.65 0.66 0.72 0.74 0.74 0.79 0.81 0.83 0.88 0.97 1.06 1.05 1.04 1.08 1.16
0.15 0.26 0.28 0.24 0.26 0.20 0.15 0.18 0.24 0.34 0.32 0.28 0.20 0.29 0.34 0.41 0.44 0.43 0.40 0.40 0.41 0.45 0.45 0.43 0.41 0.40 0.44 0.47 0.48 0.47 0.51 0.58 0.59 0.54 0.54 0.58 0.61 0.64 0.73 0.86 0.94 0.95 0.95 0.93
0.11 0.18 0.22 0.18 0.10 0.06 0.08 0.11 0.20 0.35 0.25 0.20 0.17 0.24 0.24 0.28 0.30 0.30 0.29 0.31 0.32 0.35 0.35 0.35 0.34 0.34 0.35 0.36 0.36 0.40 0.43 0.46 0.46 0.42 0.41 0.43 0.45 0.47 0.53 0.63 0.72 0.77 0.81 0.85
0.11 0.15 0.23 0.24 0.16 0.10 0.11 0.11 0.14 0.30 0.46 0.29 0.23 0.25 0.24 0.24 0.23 0.22 0.24 0.26 0.26 0.26 0.24 0.23 0.23 0.23 0.25 0.27 0.31 0.34 0.33 0.31 0.31 0.32 0.32 0.34 0.35 0.35 0.37 0.42 0.48 0.52 0.59 0.68
0.16 0.10 0.14 0.17 0.13 0.18 0.20 0.11 0.15 0.48 0.61 0.22 0.10 0.17 0.18 0.18 0.18 0.21 0.24 0.22 0.20 0.18 0.16 0.14 0.12 0.12 0.14 0.19 0.22 0.23 0.21 0.22 0.25 0.26 0.26 0.27 0.28 0.29 0.30 0.31 0.34 0.37 0.38 0.42
0.12 0.11 0.07 0.06 0.09 0.21 0.22 0.14 0.16 0.31 0.22 0.19 0.08 0.09 0.11 0.11 0.14 0.17 0.19 0.15 0.11 0.10 0.08 0.06 0.07 0.08 0.10 0.13 0.16 0.17 0.19 0.21 0.25 0.24 0.22 0.21 0.22 0.23 0.24 0.24 0.23 0.23 0.22 0.23
0.12 0.12 0.08 0.07 0.07 0.12 0.16 0.09 0.08 0.09 0.07 0.07 0.05 0.07 0.06 0.10 0.14 0.17 0.16 0.12 0.09 0.07 0.05 0.04 0.04 0.04 0.05 0.09 0.17 0.22 0.25 0.26 0.24 0.22 0.20 0.19 0.20 0.21 0.21 0.20 0.17 0.16 0.16 0.17
0.07 0.10 0.16 0.09 0.03 0.11 0.14 0.08 0.07 0.05 0.03 0.05 0.07 0.06 0.07 0.15 0.21 0.23 0.16 0.10 0.06 0.05 0.04 0.03 0.02 0.03 0.05 0.13 0.26 0.39 0.45 0.40 0.33 0.29 0.24 0.22 0.22 0.22 0.22 0.22 0.22 0.21 0.21 0.23
0.05 0.10 0.22 0.14 0.08 0.19 0.13 0.06 0.03 0.02 0.03 0.05 0.05 0.05 0.08 0.11 0.16 0.16 0.10 0.05 0.03 0.03 0.02 0.02 0.02 0.04 0.08 0.16 0.29 0.38 0.46 0.49 0.44 0.40 0.38 0.35 0.36 0.38 0.40 0.42 0.41 0.40 0.40 0.40
0.03 0.11 0.25 0.20 0.14 0.08 0.04 0.03 0.03 0.04 0.04 0.04 0.05 0.04 0.04 0.05 0.10 0.10 0.06 0.04 0.03 0.02 0.02 0.01 0.02 0.04 0.09 0.16 0.24 0.33 0.43 0.48 0.52 0.58 0.62 0.62 0.61 0.64 0.67 0.72 0.74 0.70 0.67 0.66
0.04 0.10 0.26 0.24 0.18 0.05 0.02 0.01 0.02 0.04 0.07 0.03 0.03 0.03 0.02 0.04 0.09 0.09 0.08 0.06 0.05 0.04 0.04 0.04 0.04 0.06 0.11 0.20 0.30 0.46 0.57 0.63 0.66 0.72 0.77 0.74 0.73 0.74 0.75 0.75 0.75 0.72 0.66 0.63
0.09 0.16 0.25 0.22 0.18 0.04 0.01 0.01 0.01 0.05 0.06 0.02 0.03 0.04 0.04 0.06 0.07 0.05 0.07 0.10 0.10 0.10 0.11 0.13 0.15 0.19 0.26 0.35 0.49 0.71 0.83 0.78 0.72 0.71 0.67 0.61 0.57 0.53 0.49 0.47 0.45 0.43 0.39 0.36
0.03 0.07 0.09 0.10 0.14 0.05 0.02 0.02 0.04 0.05 0.03 0.02 0.03 0.05 0.06 0.05 0.04 0.05 0.05 0.08 0.13 0.16 0.17 0.20 0.25 0.31 0.37 0.40 0.47 0.57 0.59 0.54 0.49 0.44 0.37 0.31 0.29 0.26 0.24 0.23 0.22 0.19 0.17 0.15
0.03 0.04 0.05 0.05 0.06 0.03 0.02 0.03 0.03 0.03 0.03 0.03 0.04 0.06 0.05 0.05 0.04 0.04 0.05 0.06 0.07 0.10 0.11 0.12 0.13 0.14 0.16 0.18 0.20 0.21 0.19 0.17 0.15 0.14 0.11 0.09 0.09 0.09 0.08 0.08 0.07 0.06 0.05 0.05
0.05 0.03 0.05 0.05 0.03 0.02 0.02 0.02 0.02 0.03 0.03 0.03 0.04 0.05 0.05 0.06 0.04 0.04 0.05 0.05 0.06 0.06 0.05 0.06 0.06 0.05 0.05 0.05 0.05 0.05 0.04 0.04 0.04 0.04 0.04 0.04 0.04 0.04 0.05 0.05 0.05 0.05 0.05 0.06
0.06 0.06 0.07 0.07 0.04 0.03 0.02 0.02 0.03 0.03 0.02 0.02 0.03 0.03 0.04 0.05 0.06 0.06 0.07 0.06 0.06 0.06 0.06 0.06 0.06 0.06 0.06 0.05 0.05 0.05 0.05 0.05 0.05 0.05 0.05 0.06 0.06 0.06 0.07 0.08 0.08 0.09 0.09 0.10
0.04 0.05 0.10 0.09 0.04 0.04 0.04 0.02 0.02 0.03 0.03 0.02 0.02 0.03 0.04 0.04 0.05 0.05 0.05 0.05 0.05 0.06 0.07 0.07 0.07 0.07 0.07 0.07 0.07 0.07 0.07 0.08 0.08 0.08 0.08 0.10 0.11 0.11 0.12 0.12 0.13 0.15 0.15 0.16